Weather History for Estherville, IA

Change the Weather History Date:

Saturday, February 2, 2013

  Actual Average Record
Temperature  
Mean Temperature 17 °F 17 °F  
Max Temperature 30 °F 26 °F 53 °F (1987)
Min Temperature 4 °F 8 °F -20 °F (1978)
Degree Days  
Heating Degree Days 48 48  
Month to date heating degree days 108 96  
Since 1 July heating degree days 4502 4767  
Cooling Degree Days 0 0  
Month to date cooling degree days 0 0  
Year to date cooling degree days 0 0  
Moisture  
Dew Point 11 °F    
Average Humidity 77    
Maximum Humidity 87    
Minimum Humidity 67    
Precipitation  
Precipitation T in 0.01 in 0.50 in (1961)
Month to date precipitation T 0.02  
Sea Level Pressure  
Sea Level Pressure 30.07 in    
Wind  
Wind Speed 13 mph (West)    
Max Wind Speed 35 mph    
Max Gust Speed 43 mph    
Visibility 7 miles    
Events Snow    
T = Trace of Precipitation, MM = Missing Value Source: NWS Daily Summary

Daily Weather History Graph

Daily Weather History Graph

Search for Another Location

Airport:

Trip Planner

Search our weather history database for the weather conditions in past years. The results will help you decide how hot, cold, wet, or windy it might be!

Date:

Astronomy

Feb. 02, 2013 Rise Set
Actual Time 7:33 AM CST 5:32 PM CST
Civil Twilight 7:03 AM CST 6:02 PM CST
Nautical Twilight 6:29 AM CST 6:36 PM CST
Astronomical Twilight 5:55 AM CST 7:10 PM CST
Moon No Moon Rise 10:31 AM CST (2/2)
Length of Visible Light 10h 59m
Length of Day
9h 59m
Waning Gibbous, 59% of the Moon is Illuminated
Feb 2
Waning Gibbous
Feb 3
Last Quarter
Feb 10
New
Feb 17
First Quarter
Feb 25
Full

Hourly Weather History & Observations

Time (CST) Temp. Windchill Dew Point Humidity Pressure Visibility Wind Dir Wind Speed Gust Speed Precip Events Conditions
12:52 AM 18.0 °F 3.6 °F 10.9 °F 74% 30.07 in 10.0 mi NNW 15.0 mph 27.6 mph N/A   Overcast
1:18 AM 17.6 °F 1.3 °F 10.4 °F 73% 30.00 in 9.0 mi NNW 19.6 mph - 0.00 in Snow Light Snow
1:52 AM 16.0 °F -1.3 °F 10.0 °F 77% 30.09 in 9.0 mi NNW 20.7 mph - 0.00 in   Overcast
2:52 AM 14.0 °F -3.0 °F 8.1 °F 77% 30.12 in 10.0 mi NNW 18.4 mph - 0.00 in   Overcast
3:29 AM 12.2 °F -3.1 °F 6.8 °F 79% 30.05 in 10.0 mi NNW 13.8 mph - N/A   Partly Cloudy
3:52 AM 10.9 °F -4.7 °F 6.1 °F 81% 30.13 in 10.0 mi NNW 13.8 mph - N/A   Partly Cloudy
4:52 AM 9.0 °F -7.9 °F 3.9 °F 80% 30.16 in 10.0 mi NNW 15.0 mph - N/A   Clear
5:52 AM 7.0 °F -11.0 °F 1.9 °F 80% 30.19 in 10.0 mi NNW 16.1 mph - N/A   Clear
6:52 AM 5.0 °F -11.6 °F 1.0 °F 84% 30.20 in 10.0 mi North 12.7 mph - N/A   Clear
7:52 AM 3.9 °F -11.3 °F -0.0 °F 84% 30.21 in 10.0 mi North 10.4 mph - N/A   Clear
8:52 AM 6.1 °F -8.7 °F 1.0 °F 80% 30.22 in 10.0 mi North 10.4 mph - N/A   Partly Cloudy
9:52 AM 7.0 °F -3.3 °F 1.0 °F 77% 30.22 in 8.0 mi NNW 5.8 mph - N/A   Partly Cloudy
10:52 AM 9.0 °F 2.4 °F 1.9 °F 73% 30.21 in 10.0 mi West 3.5 mph - N/A   Partly Cloudy
12:32 PM 12.2 °F 2.9 °F 3.2 °F 67% 30.11 in 10.0 mi WSW 5.8 mph - N/A   Mostly Cloudy
12:52 PM 14.0 °F 3.9 °F 5.0 °F 67% 30.17 in 10.0 mi NW 6.9 mph - N/A   Overcast
1:13 PM 14.0 °F 3.9 °F 5.0 °F 67% 30.09 in 8.0 mi West 6.9 mph - 0.00 in Snow Light Snow
1:43 PM 15.8 °F 8.6 °F 6.8 °F 68% 30.07 in 5.0 mi WSW 4.6 mph - 0.00 in Snow Light Snow
1:52 PM 16.0 °F 8.8 °F 8.1 °F 71% 30.14 in 5.0 mi Variable 4.6 mph - 0.00 in Snow Light Snow
2:03 PM 15.8 °F 5.1 °F 8.6 °F 73% 30.05 in 8.0 mi SW 8.1 mph - 0.00 in   Mostly Cloudy
2:52 PM 18.0 °F 6.9 °F 8.1 °F 65% 30.11 in 10.0 mi SW 9.2 mph - 0.00 in   Mostly Cloudy
3:08 PM 17.6 °F 5.7 °F 8.6 °F 68% 30.03 in 10.0 mi SW 10.4 mph - N/A   Overcast
3:52 PM 18.0 °F 7.7 °F 10.0 °F 71% 30.10 in 10.0 mi SSW 8.1 mph - N/A   Overcast
4:35 PM 17.6 °F 6.4 °F 12.2 °F 79% 30.00 in 1.8 mi SSW 9.2 mph - 0.00 in Snow Light Snow
4:52 PM 18.0 °F 6.9 °F 14.0 °F 84% 30.07 in 1.0 mi South 9.2 mph - 0.00 in Snow Light Snow
5:04 PM 19.4 °F 7.2 °F 15.8 °F 86% 29.98 in 1.5 mi South 11.5 mph - 0.00 in Snow Light Snow
5:12 PM 19.4 °F 7.9 °F 15.8 °F 86% 29.98 in 2.5 mi South 10.4 mph - 0.00 in Snow Light Snow
5:15 PM 19.4 °F 7.2 °F 15.8 °F 86% 29.97 in 3.0 mi South 11.5 mph - 0.00 in Snow Light Snow
5:52 PM 19.9 °F 9.3 °F 16.0 °F 85% 30.03 in 3.0 mi SSW 9.2 mph - 0.00 in Snow Light Snow
6:00 PM 19.4 °F 7.2 °F 15.8 °F 86% 29.95 in 2.5 mi SSW 11.5 mph - 0.00 in Snow Light Snow
6:52 PM 19.9 °F 7.9 °F 17.1 °F 89% 30.01 in 7.0 mi SSW 11.5 mph - 0.00 in   Overcast
7:34 PM 21.2 °F 10.1 °F 19.4 °F 93% 29.93 in 4.0 mi SSW 10.4 mph - 0.00 in Snow Light Snow
7:52 PM 21.9 °F 10.4 °F 19.0 °F 89% 30.00 in 3.0 mi SW 11.5 mph - 0.00 in Snow Light Snow
8:12 PM 24.8 °F 15.3 °F 21.2 °F 86% 29.92 in 3.0 mi WSW 9.2 mph - 0.00 in Snow Light Snow
8:52 PM 28.0 °F 16.5 °F 24.1 °F 85% 29.98 in 8.0 mi West 15.0 mph 20.7 mph 0.00 in   Overcast
9:52 PM 28.0 °F 13.6 °F 24.1 °F 85% 30.01 in 3.0 mi NNW 24.2 mph 35.7 mph 0.00 in Snow Light Snow
10:22 PM 24.8 °F 7.6 °F 19.4 °F 80% 29.95 in 7.0 mi NNW 31.1 mph 38.0 mph 0.00 in   Overcast
10:32 PM 24.8 °F 8.4 °F 19.4 °F 80% 29.97 in 6.0 mi NNW 27.6 mph 38.0 mph 0.00 in   Haze
10:52 PM 23.0 °F 6.6 °F 19.0 °F 85% 30.04 in 7.0 mi NNW 25.3 mph 32.2 mph 0.00 in   Overcast
11:52 PM 19.0 °F -0.3 °F 12.0 °F 74% 30.07 in 8.0 mi NNW 31.1 mph 42.6 mph N/A   Mostly Cloudy